Starlink 32897

operational
NORAD ID: 62967 Int'l Des: 2025-029 Owner: SPXS Country: US Constellation: starlink
LEOCIRCULAR

Starlink 32897について

説明を読み込み中...

リアルタイム位置

3D地球を読み込み中...

次回通過

高度履歴

Altitude vs Time

uPlot chart will show altitude changes over time

軌道要素

1 62967U 25029V 26034.36250567 .00038491 00000-0 13051-2 0 9994
2 62967 53.1601 31.7759 0001356 88.0599 272.0557 15.30197744 56060
Epoch: Feb 3, 2026 • Age: 27 hours

現在のステータス

高度 478.2 km
速度 7.63 km/s
衛星直下点 41.82°N, 148.24°W
打ち上げ日 Feb 11, 2025
運用期間 0.9 years
タイプ internet

技術仕様

分類 Payload
質量 730.00 kg
乾燥質量 700.00 kg
総質量 730.00 kg
長さ 0.30 m
直径 4.10 m
スパン 29.00 m
形状 Box + pan
製造者 SPXS
バスタイプ Starlink V2M
フェーズステータス In Orbit
所有者/国 SPXS/US

大規模コンステレーション

Loading constellations...